Location: Fort Worth, Tx
(32.7431°N, 97.3695°W)
Time: 10:05:17
(UTC-04:00)

ISS - Visible Passes

Search period start: 24 March 2017 00:00
Search period end: 03 April 2017 00:00
Orbit: 399 x 409 km, 51.6° (Epoch: 24 March)

Date Brightness Start Highest point End Pass type
(mag) Time Alt. Az. Time Alt. Az. Time Alt. Az.
24 Mar -1.6 06:24:20 26° ENE 06:24:20 26° ENE 06:26:22 10° ESE visible
24 Mar -2.1 07:57:23 10° W 07:59:39 17° SW 08:01:54 10° S visible
25 Mar -3.0 07:08:03 34° SSW 07:08:03 34° SSW 07:10:31 10° SSE visible
25 Mar -3.6 22:04:24 10° SSW 22:07:12 48° SSE 22:07:12 48° SSE visible
26 Mar -2.5 21:12:42 10° S 21:15:18 22° SE 21:17:54 10° ENE visible
26 Mar -1.4 22:48:55 10° W 22:51:05 23° NW 22:51:05 23° NW visible
27 Mar -3.0 21:56:02 10° WSW 21:59:11 50° NW 22:01:58 13° NNE visible
28 Mar -0.7 22:42:11 10° NW 22:43:35 12° NNW 22:44:59 10° N visible
29 Mar -1.3 21:48:26 10° W 21:50:57 20° NW 21:53:28 10° NNE visible
31 Mar -0.6 21:42:19 10° NW 21:42:50 10° NNW 21:43:20 10° NNW visible
